Wind_Speed
13 13 13 14 16 16 18 20 22 22 20 20 22 22 21 21 20 20 18 17 16 15 14 14 14 14 13 13 12 12 11 10 9 10 11 13 14 14 14 15 15 15 16 17 18 20 22 23 24 24 24 24 24 24 25 26 27 29 30 31 31 31 32 32 32 32 33 33 33 33 34 34 34 34 33 33 33 34 34 34 34 33 33 32 31
13 12 13 15 16 17 18 21 23 23 22 22 23 22 21 20 20 19 18 17 16 14 14 14 14 13 13 12 12 11 10 9 9 9 11 12 13 13 13 13 14 14 15 15 16 17 19 20 21 22 22 23 23 22 23 24 26 28 29 30 30 30 30 31 31 31 32 32 32 33 33 34 34 34 33 34 34 34 34 35 35 34 33 33 32
14 13 13 15 17 19 20 22 24 24 25 25 24 23 21 20 20 19 18 17 15 14 14 13 13 13 12 12 12 11 10 9 8 8 9 11 11 11 12 12 13 13 14 14 14 15 16 17 18 19 20 22 22 21 21 22 24 26 27 28 28 29 30 31 31 31 30 30 31 31 32 33 34 33 33 33 33 34 35 35 35 34 33 33 32
14 13 13 16 18 20 23 24 25 25 26 27 25 23 21 20 19 18 18 16 15 14 13 12 12 12 11 11 11 11 10 8 7 7 8 9 10 10 10 10 11 11 12 12 13 13 14 15 16 17 18 20 21 21 21 22 23 24 25 26 27 28 29 29 30 29 29 29 29 30 31 32 33 33 33 33 33 34 34 35 36 35 34 33 32
14 13 14 17 20 23 25 26 25 26 27 26 25 23 21 20 19 18 17 16 14 13 12 12 11 11 10 10 10 10 9 8 6 5 6 7 8 8 8 8 9 9 10 11 11 12 13 14 15 16 17 18 19 20 20 21 21 22 23 24 24 25 26 27 27 28 28 29 29 29 30 31 32 34 34 34 34 34 35 35 36 37 36 34 32
14 14 16 19 22 26 27 26 26 26 27 27 25 24 23 21 19 17 16 16 15 13 12 11 11 10 10 9 9 8 8 7 6 4 4 5 6 6 6 6 7 8 9 9 9 10 11 12 13 15 16 17 17 18 19 20 20 20 21 22 23 23 24 25 26 27 28 28 29 29 29 30 31 33 34 35 35 36 37 36 37 38 38 36 34
15 16 18 21 24 27 27 26 26 27 28 27 26 25 24 22 20 18 17 16 16 14 13 12 11 10 9 8 7 7 6 6 5 3 2 3 4 5 5 5 5 6 7 8 8 9 10 11 12 13 14 15 16 17 18 18 19 19 20 21 21 21 22 23 25 26 27 28 29 29 30 30 31 32 34 35 36 37 39 38 38 40 41 39 37
16 18 20 23 25 28 28 27 27 27 28 27 25 23 22 21 19 18 17 17 16 15 14 12 11 10 8 7 6 5 5 4 4 2 1 2 3 3 4 4 4 5 6 6 7 7 8 9 10 12 13 14 15 15 16 17 17 18 19 20 20 20 21 23 24 25 26 27 28 29 30 31 32 33 34 35 36 38 40 40 40 41 42 42 40
17 19 22 24 27 29 29 28 28 28 28 27 25 23 22 21 19 18 17 18 17 17 15 14 12 11 9 8 6 5 4 3 3 2 1 3 4 4 4 4 4 5 5 5 5 6 7 8 9 10 11 13 13 14 15 15 15 16 17 19 19 20 21 22 23 25 25 26 27 29 30 32 33 34 35 36 36 37 39 41 42 42 42 43 42
17 21 23 25 29 31 30 29 28 27 27 28 27 25 23 22 21 19 19 19 19 19 18 16 14 12 11 9 8 7 5 4 3 3 2 3 5 6 6 5 5 6 7 7 6 6 7 8 8 9 10 12 12 13 14 15 15 15 17 18 19 19 21 22 23 25 26 26 28 29 30 32 33 35 36 37 37 37 38 41 42 42 42 43 43
18 22 24 27 31 32 31 30 28 28 29 29 28 27 26 25 24 23 20 19 19 19 18 17 15 14 12 10 9 8 7 6 5 5 4 5 6 7 8 8 7 8 9 10 10 9 8 9 10 10 11 12 12 12 13 14 15 15 16 17 18 19 21 22 24 25 26 27 28 29 31 32 34 35 37 38 38 38 38 41 42 41 41 43 43
20 22 25 29 32 32 31 30 28 29 30 30 29 29 28 27 26 24 21 19 17 17 17 17 16 15 13 12 11 9 8 8 7 7 7 7 7 8 10 10 11 10 10 12 13 12 11 11 11 12 12 13 13 13 13 14 14 15 17 18 18 19 21 22 24 26 27 29 30 31 32 34 35 36 38 39 39 39 40 41 41 39 40 42 43
22 23 25 29 30 29 29 29 29 29 29 29 30 30 29 28 26 25 23 21 18 18 18 18 17 16 15 13 12 11 10 10 10 9 9 9 9 10 11 11 12 13 12 13 14 14 13 12 12 13 15 16 16 15 15 15 15 16 17 19 20 21 22 23 25 27 29 30 32 33 35 36 38 39 40 41 41 42 42 43 41 37 39 42 43
23 25 27 30 29 28 29 30 30 30 29 30 30 30 30 29 26 25 24 23 21 19 19 19 18 17 16 14 13 12 12 12 12 12 11 11 11 12 12 13 13 13 14 14 14 14 14 13 12 14 17 18 18 18 18 17 17 18 19 20 22 23 24 25 27 28 30 31 33 34 36 38 39 41 42 43 44 44 45 45 40 34 38 43 43
24 27 29 31 29 28 29 30 30 30 30 31 31 31 31 29 27 25 24 23 22 21 20 19 19 19 17 15 14 13 13 14 13 13 13 13 13 14 14 15 15 14 14 14 14 14 14 14 14 15 17 19 20 20 20 19 20 20 21 22 24 25 26 27 28 29 31 32 33 35 37 39 41 42 44 45 46 46 47 47 40 32 38 44 44
25 28 30 31 30 30 30 30 30 31 31 31 31 31 30 28 27 27 26 25 24 23 21 21 21 20 18 16 15 14 14 13 13 13 13 14 14 14 15 17 18 17 16 15 15 16 16 16 16 17 18 20 22 22 22 22 22 23 24 25 26 27 28 29 29 30 32 33 34 35 37 40 41 43 45 46 48 47 48 47 39 32 38 44 46
25 28 29 29 29 29 30 30 30 31 31 31 30 29 27 27 28 27 27 27 26 24 23 22 22 20 18 17 15 15 14 13 13 14 15 15 15 15 16 18 19 20 19 17 17 18 18 19 19 19 20 21 23 24 24 24 25 25 26 27 28 29 30 31 32 32 33 34 36 36 38 41 43 44 46 47 49 48 48 46 37 32 38 44 48
26 28 29 29 29 29 30 31 31 32 31 30 29 27 27 27 28 28 27 26 25 24 23 22 21 19 18 17 16 16 16 16 16 17 18 18 18 17 18 19 21 22 22 20 19 20 20 21 21 21 22 23 25 26 26 26 27 28 28 29 30 31 32 33 34 35 35 36 37 38 39 42 44 46 48 49 51 50 49 44 34 32 38 44 48
28 29 30 31 31 31 31 31 31 32 31 30 29 28 28 29 28 28 27 25 24 24 23 22 20 20 19 18 18 18 18 19 19 20 21 21 20 20 21 21 22 24 24 23 22 21 22 23 24 24 24 25 26 27 28 28 29 30 30 31 32 33 34 35 36 37 38 39 39 39 41 43 46 47 48 50 53 53 51 43 32 32 38 43 48
30 30 31 33 33 32 32 31 31 31 31 30 29 29 30 30 29 29 28 27 26 25 24 23 22 21 21 20 20 20 21 21 22 22 23 23 22 23 24 24 25 26 26 25 23 23 23 24 25 25 26 26 27 28 29 30 30 31 32 33 34 35 35 36 38 39 40 41 42 42 43 46 48 49 49 51 54 55 49 37 29 33 39 44 49
32 32 33 33 33 33 32 32 32 31 30 30 30 31 32 32 32 32 31 30 29 27 26 25 24 24 23 23 22 22 23 23 24 25 25 24 23 24 24 25 26 27 27 27 25 24 24 24 25 26 27 27 28 29 30 31 32 33 34 34 36 36 37 38 39 41 42 43 44 45 46 47 50 51 51 52 56 54 42 29 28 36 41 45 50
34 33 34 33 33 33 33 33 32 31 30 30 31 32 33 34 35 34 33 32 31 30 29 28 28 27 26 25 25 25 25 26 26 27 27 26 25 25 24 26 28 28 28 28 27 26 25 26 26 27 28 28 30 31 31 32 33 35 36 36 37 38 38 39 40 42 43 44 45 47 48 49 51 52 52 54 55 50 34 23 29 39 44 47 50
37 35 35 34 34 34 34 34 33 32 32 32 33 34 34 35 35 34 34 35 34 33 31 31 31 31 29 29 29 29 28 29 29 29 29 29 28 27 27 27 29 29 30 29 29 28 28 28 28 29 29 30 32 33 34 34 35 36 37 38 39 39 40 41 42 43 45 45 46 48 49 50 52 53 54 54 54 44 29 24 30 39 44 47 50
41 39 38 37 36 36 37 36 36 36 36 36 36 37 37 37 36 36 37 37 36 35 34 34 35 34 33 34 33 32 32 32 31 31 31 31 30 30 30 30 31 31 31 31 31 31 31 30 30 31 31 32 34 36 36 36 37 39 40 40 41 41 42 43 44 45 46 46 47 48 50 51 53 54 54 54 52 42 30 27 31 36 42 47 49
43 42 41 40 39 38 39 39 39 39 39 39 39 39 39 39 39 39 40 40 38 37 37 38 38 38 38 38 37 36 36 35 34 33 32 32 32 32 32 33 33 33 33 33 33 33 33 33 33 33 34 35 37 38 39 39 40 41 42 43 43 44 44 45 45 46 47 48 48 49 51 52 53 55 55 54 52 44 35 30 31 35 41 46 48
45 44 43 42 41 41 41 40 40 40 40 41 42 42 42 42 42 42 42 42 41 41 41 41 41 41 41 41 40 39 39 37 36 35 34 34 33 34 34 35 35 35 35 35 36 36 35 35 35 36 36 37 39 40 41 41 42 43 44 45 46 46 46 47 47 48 48 49 50 50 51 53 54 56 56 54 52 47 39 33 32 35 41 45 47
49 47 46 44 44 44 43 42 42 41 41 42 42 43 44 44 45 45 44 44 43 43 44 44 44 44 44 43 42 41 40 39 38 37 37 36 35 35 36 37 38 38 37 37 38 38 38 37 38 38 39 40 41 42 42 43 44 45 46 47 48 48 49 48 49 49 49 50 51 52 52 52 55 57 57 56 55 50 43 38 37 38 41 43 47
51 50 49 48 47 46 45 44 44 44 43 43 43 44 44 45 46 46 46 45 45 45 45 45 45 45 46 45 43 42 41 41 40 40 39 39 38 38 39 39 40 40 40 40 40 40 40 40 40 41 41 42 44 44 44 45 45 46 48 49 50 51 50 50 50 50 51 51 53 54 53 52 56 58 59 58 56 52 47 42 39 37 38 42 47
53 53 53 52 51 50 48 47 47 47 47 46 46 46 46 46 47 47 46 46 46 45 46 46 46 46 47 46 44 43 43 43 42 42 42 41 41 41 41 42 42 43 42 42 42 43 43 42 42 43 44 44 46 47 47 47 47 48 49 50 52 53 52 52 52 51 52 52 53 55 53 52 56 59 60 58 54 48 42 35 30 31 36 42 47
51 53 54 54 54 53 52 51 51 50 50 50 49 49 49 49 49 48 48 47 47 46 47 47 47 48 48 47 46 45 45 45 45 45 44 44 43 43 44 44 44 45 45 45 45 46 46 45 45 45 46 47 48 49 49 49 49 50 51 52 53 54 54 54 53 52 53 53 55 56 54 53 57 60 61 57 49 40 33 28 27 31 37 43 48
45 49 52 54 55 56 56 55 55 54 54 53 53 52 52 52 52 51 51 50 49 49 48 48 49 49 49 49 48 47 47 47 47 47 47 46 46 46 46 47 47 48 48 48 48 48 49 49 48 48 49 50 50 50 51 51 51 52 53 53 55 56 55 55 55 54 54 55 56 57 55 54 57 60 60 53 42 33 29 28 30 35 39 45 50
38 41 45 48 52 54 56 57 57 57 56 56 56 56 55 55 54 54 54 53 52 52 51 51 51 51 51 52 52 51 51 51 51 50 50 49 49 49 49 50 50 50 50 51 51 51 51 52 52 51 51 52 53 53 53 53 53 54 54 54 56 57 57 57 56 56 56 56 58 58 56 56 57 59 58 48 37 31 30 31 34 38 43 48 52
34 36 38 40 43 47 51 54 56 58 59 59 58 58 58 58 57 56 55 55 55 55 54 54 54 54 55 56 56 55 55 55 54 54 52 52 52 52 53 53 53 53 53 54 55 54 54 55 55 54 54 55 55 55 55 54 55 55 55 55 56 58 59 59 58 58 58 58 60 59 57 57 57 59 56 45 36 34 34 36 38 42 48 52 55
32 33 35 36 38 40 44 47 51 54 57 58 59 59 60 59 59 58 58 58 58 58 58 57 57 57 57 59 59 59 59 59 58 57 56 55 55 56 56 56 56 56 56 57 58 57 57 57 57 57 57 57 58 58 57 56 56 56 56 56 57 59 60 60 60 60 60 60 61 60 58 57 57 58 54 44 38 38 39 40 42 47 52 57 59
30 32 33 34 35 37 39 42 45 47 50 53 56 57 58 59 60 60 61 61 61 61 61 61 61 60 60 61 61 62 62 62 61 60 58 57 58 59 60 59 58 58 58 59 59 60 60 60 59 59 59 59 60 60 59 59 58 58 58 58 59 61 63 63 62 62 62 62 62 61 59 57 57 57 52 44 40 40 42 44 49 54 59 61 61
31 32 33 34 34 35 36 38 40 41 44 47 49 51 52 54 56 58 60 61 62 63 64 64 64 64 64 64 64 65 65 65 64 63 62 61 61 62 62 62 61 60 60 61 61 62 62 61 61 61 61 62 63 63 62 62 61 61 60 60 61 63 64 65 65 65 65 63 63 61 59 58 58 55 50 46 45 45 47 51 56 61 62 61 60
34 34 34 34 35 35 36 36 38 38 39 41 42 43 45 47 49 52 54 56 58 60 63 65 66 66 67 67 67 67 67 68 68 67 66 66 65 65 65 66 65 63 63 63 64 64 64 63 63 64 64 65 65 65 65 65 65 65 64 64 64 65 66 67 67 67 67 65 63 61 60 60 58 53 48 48 51 52 54 57 60 62 61 59 59
37 36 36 36 36 36 36 37 38 39 39 39 39 40 40 41 43 45 47 48 51 54 58 60 62 63 64 66 67 67 68 70 70 70 70 70 69 69 69 69 69 68 67 67 67 67 67 66 66 67 68 69 69 68 68 69 69 69 68 68 68 68 69 70 70 70 69 67 63 62 62 60 58 54 51 52 55 57 58 59 60 60 59 58 59
39 38 38 38 37 37 38 39 40 40 40 40 40 40 40 40 41 42 43 44 47 51 53 53 54 55 56 57 59 61 63 66 67 69 70 71 71 71 71 71 71 71 72 71 70 69 70 69 70 71 72 72 72 72 72 73 74 73 72 71 71 71 72 72 72 72 71 68 64 63 63 61 58 56 55 56 58 58 57 57 58 58 58 58 60
40 40 40 40 40 39 39 40 40 40 40 41 42 42 42 42 42 42 42 44 47 49 49 48 48 49 49 50 51 53 55 58 60 62 64 65 66 68 69 69 70 71 72 72 71 71 71 72 72 73 74 75 75 75 75 76 77 76 75 73 73 73 73 73 73 72 72 69 65 63 63 61 58 56 57 59 59 56 54 55 56 57 58 60 61
44 43 43 42 42 41 41 42 42 41 41 42 43 44 44 44 44 44 45 46 48 48 47 46 46 47 47 48 49 50 51 53 54 55 56 57 59 62 63 63 64 66 67 67 68 69 69 69 71 71 72 73 74 75 76 77 77 77 76 74 72 72 73 73 72 71 70 67 64 63 61 60 58 57 58 59 56 53 53 54 54 55 59 61 61
47 46 45 45 44 44 44 44 44 44 44 44 45 45 46 46 46 46 47 47 47 47 48 48 48 48 48 48 48 48 49 51 52 53 53 54 56 57 58 58 59 60 62 62 63 64 65 65 65 66 67 68 69 70 71 72 73 73 72 70 69 68 69 69 68 67 66 64 61 61 59 58 57 58 58 56 51 50 53 54 53 56 59 61 61
50 49 48 48 48 47 47 47 47 47 47 47 47 48 48 48 48 48 47 47 47 48 49 50 50 50 50 50 50 49 49 51 53 52 52 53 55 56 56 56 56 57 58 58 59 61 61 61 61 62 63 63 65 66 66 67 69 69 68 66 63 62 63 64 62 61 62 60 57 56 56 56 56 57 56 51 47 50 54 54 53 56 60 61 61
53 52 52 51 51 51 50 50 50 49 49 49 49 50 50 50 50 50 50 50 50 50 50 51 51 51 51 51 51 51 50 52 54 54 53 52 53 55 55 54 54 54 55 56 57 57 58 58 60 60 60 61 62 63 62 63 64 65 63 59 55 54 55 56 56 56 56 54 49 48 50 52 53 53 51 47 46 50 53 53 54 57 59 61 62
57 56 56 55 55 54 54 54 53 53 52 51 51 51 52 52 52 52 52 52 52 52 52 53 53 52 52 53 53 53 53 53 55 57 56 54 54 54 54 55 54 52 52 53 55 55 56 56 58 58 59 60 60 59 59 60 61 61 59 54 50 48 48 50 51 50 46 43 40 40 44 47 47 47 47 45 47 51 52 52 54 57 61 63 63
60 59 59 58 58 57 57 56 56 56 55 54 54 54 54 54 54 55 55 55 55 55 55 55 55 55 54 54 54 54 55 56 57 58 58 58 57 56 55 56 55 53 51 50 52 53 54 55 56 57 58 58 57 56 55 55 56 57 55 50 45 42 43 45 44 39 35 37 37 37 40 43 44 45 47 47 49 53 53 53 55 59 62 64 63
63 62 61 61 60 60 59 59 59 59 58 57 57 56 56 56 57 57 57 57 57 57 58 58 58 58 57 56 55 56 57 57 58 59 60 60 60 59 57 56 55 54 52 50 50 52 53 54 55 55 55 55 53 50 49 50 52 51 47 43 39 38 38 37 32 28 31 36 37 35 40 45 45 46 49 51 53 55 55 56 58 60 62 63 63
65 64 64 63 63 62 62 61 62 62 61 61 61 60 60 60 60 60 60 59 59 60 60 61 61 60 60 58 58 57 58 58 59 60 60 61 61 61 59 56 54 54 52 51 51 51 52 53 54 54 52 49 44 41 42 45 45 41 36 32 29 28 28 28 28 32 38 40 36 36 43 46 45 45 49 53 55 57 57 58 60 60 62 63 62
67 67 66 66 66 65 65 64 64 64 65 65 65 65 65 64 63 63 62 62 62 62 62 63 62 62 61 60 60 59 59 59 60 60 61 62 62 61 59 57 55 52 50 50 50 50 51 51 49 46 44 41 37 36 37 39 39 34 29 26 26 28 34 39 41 43 46 45 40 38 42 43 42 44 50 54 57 58 59 60 61 61 62 63 62
69 69 68 68 68 68 67 67 67 68 69 69 69 69 68 68 67 67 66 66 65 65 65 65 65 64 63 62 62 61 61 61 61 61 62 63 63 61 59 57 55 53 50 48 48 50 50 46 39 35 33 31 30 31 32 34 36 34 31 34 40 47 52 53 51 48 48 47 44 41 42 42 41 43 48 54 58 59 60 61 61 62 63 64 63
71 70 70 70 70 70 70 70 71 72 73 73 73 72 72 71 71 71 70 70 70 69 69 68 67 66 65 65 64 63 62 62 61 62 63 63 63 62 60 57 55 53 50 48 48 48 45 38 32 27 22 19 20 23 27 31 34 37 44 53 57 55 52 50 51 51 49 48 46 44 45 47 45 43 46 51 56 58 58 59 61 63 64 64 64
Wind_Direction
199 204 210 202 187 181 177 171 173 176 178 178 174 171 169 165 162 161 159 153 144 135 128 122 116 111 107 102 100 98 95 92 89 85 80 76 71 66 62 61 59 56 54 54 55 55 52 49 47 46 45 44 43 44 45 45 45 44 42 41 40 39 38 36 35 35 34 33 32 31 30 28 26 24 22 21 20 18 17 17 16 15 14 13 12
198 206 212 208 192 181 177 173 174 176 178 178 174 172 171 169 167 165 162 156 147 140 133 128 122 116 110 105 101 98 95 91 86 82 79 76 72 67 63 60 57 55 52 51 52 51 46 43 43 44 43 42 42 41 42 43 43 43 42 40 39 38 37 36 35 33 32 32 32 31 29 27 25 23 22 20 19 18 16 15 15 15 13 12 11
197 205 212 210 197 183 176 175 177 179 178 177 175 174 174 173 171 170 166 159 152 146 140 135 128 122 115 110 105 101 98 91 85 78 77 77 74 70 66 61 57 54 51 49 47 43 39 39 41 41 42 42 40 39 39 40 41 40 39 38 36 35 35 34 32 30 30 29 29 29 28 26 24 22 21 19 18 17 15 14 13 12 11 10 10
198 204 210 210 199 183 176 177 181 181 178 176 175 175 176 176 176 175 171 165 159 154 149 142 136 128 121 116 111 108 102 95 86 77 75 78 78 74 69 64 59 55 52 48 45 40 38 39 40 39 40 41 39 38 37 38 38 37 36 35 33 31 31 30 28 27 27 26 26 27 26 25 23 21 20 18 17 15 14 13 12 12 10 8 7
201 208 211 208 197 183 177 178 181 181 178 175 174 174 177 180 181 180 177 171 168 164 158 152 145 138 131 124 119 115 109 103 94 80 75 78 80 78 72 68 64 60 55 50 46 43 40 39 38 37 38 39 38 38 36 36 36 35 34 33 30 28 27 26 25 24 24 23 22 22 21 20 20 19 18 17 16 14 12 11 11 10 9 7 5
207 213 211 206 198 185 177 177 180 181 180 177 176 176 178 182 184 186 184 179 177 175 171 163 157 150 142 136 130 124 118 112 103 87 69 71 78 79 74 67 64 64 62 55 48 45 42 38 35 35 35 36 37 37 36 35 34 33 33 31 28 25 23 22 22 21 20 18 17 16 15 14 14 14 15 15 14 13 11 10 10 9 9 8 5
212 217 211 202 197 185 176 178 182 183 183 181 181 180 180 181 184 188 190 188 186 186 184 177 170 163 157 151 144 136 128 122 117 105 62 39 56 66 67 57 50 55 62 60 51 45 42 38 33 32 32 33 34 34 34 33 32 31 30 28 24 21 19 18 17 16 15 14 12 11 10 9 8 9 9 10 11 10 10 9 9 9 8 8 6
213 217 210 199 192 182 177 181 185 186 187 186 186 185 184 183 184 189 193 194 193 194 195 192 185 177 170 167 162 154 145 135 131 129 82 348 3 26 45 42 25 29 46 56 52 42 38 35 30 28 28 29 29 30 30 29 28 27 25 21 18 16 14 13 13 13 12 11 10 9 7 6 4 4 3 4 5 6 7 7 7 6 7 7 6
211 212 206 195 188 181 180 184 188 189 189 190 192 192 191 190 189 192 196 198 198 199 201 201 198 191 184 183 183 182 179 169 160 166 239 305 324 340 359 13 3 355 7 30 38 29 22 24 25 22 21 23 25 26 25 23 22 20 18 15 13 12 10 9 9 9 9 8 8 8 7 6 4 3 2 2 1 1 2 3 3 3 4 5 5
206 206 201 193 187 182 182 186 188 191 192 193 196 198 199 199 198 198 200 201 202 202 203 204 204 203 198 195 196 200 206 206 205 215 249 282 301 314 327 342 346 338 341 353 6 8 3 5 10 12 13 15 18 20 19 16 14 12 10 9 7 6 5 4 3 4 4 5 5 5 5 4 4 4 4 4 2 360 359 1 2 2 2 3 4
199 201 198 192 188 184 184 186 188 192 195 197 199 201 204 206 205 205 205 206 207 207 208 209 209 211 209 208 210 212 220 227 229 236 251 269 288 301 312 322 332 335 334 338 346 352 353 352 356 0 4 6 8 10 10 8 7 4 2 1 1 0 0 359 358 358 358 359 0 1 1 360 0 2 3 3 3 1 359 359 360 0 1 2 3
196 199 197 193 190 187 185 187 190 194 198 200 202 204 206 209 210 210 211 212 212 213 215 216 216 217 217 218 221 224 230 239 244 247 254 265 279 291 301 311 320 328 330 332 337 344 349 349 350 354 357 358 359 359 358 358 357 356 354 353 353 354 354 354 354 353 353 355 356 357 356 355 356 358 359 0 1 1 0 359 359 360 1 2 2
192 196 196 195 193 189 188 190 193 197 200 203 206 208 210 212 213 214 216 217 217 219 221 222 223 223 222 223 227 231 237 246 251 254 257 262 272 281 290 300 309 317 323 328 331 337 344 350 352 354 354 352 351 350 349 347 346 346 346 345 345 345 346 347 348 349 350 351 353 353 352 351 352 354 356 357 358 358 359 359 359 0 2 2 1
192 193 194 197 197 194 193 194 197 200 202 205 209 211 214 216 218 218 220 222 223 224 225 226 227 228 229 229 232 235 242 249 254 257 260 262 266 273 281 289 297 306 313 320 325 329 336 343 348 349 349 347 345 344 344 342 340 339 339 339 339 339 340 341 343 345 346 348 350 350 348 348 348 350 352 354 354 355 356 357 358 1 4 4 2
195 195 195 197 199 200 199 200 202 204 206 208 209 211 214 217 219 221 223 225 227 229 230 229 230 230 232 234 237 239 244 249 254 259 261 263 266 270 277 282 287 294 301 310 317 321 323 327 331 335 339 341 341 339 339 337 336 335 335 334 334 335 336 337 339 341 342 344 346 347 346 345 345 347 349 350 351 352 353 355 358 2 5 5 2
199 199 199 199 201 202 203 205 207 209 210 212 212 212 214 217 220 223 224 225 227 229 231 231 231 231 233 236 238 239 241 247 253 258 261 265 268 271 276 280 284 288 293 300 307 310 312 315 318 322 326 331 334 334 334 333 332 331 331 330 330 332 334 335 335 337 337 339 341 343 343 342 342 344 346 348 349 349 350 354 357 2 5 5 3
204 204 204 205 206 207 207 208 210 213 215 216 216 215 216 219 222 224 225 226 226 228 228 228 228 230 232 233 235 238 242 250 256 261 264 266 268 271 276 280 283 285 290 296 300 302 305 308 311 315 318 322 326 328 328 328 328 328 327 327 327 329 331 332 332 332 333 334 337 339 340 339 340 342 345 346 347 347 348 351 355 358 2 4 2
208 206 206 208 211 213 212 211 211 215 218 219 220 220 221 223 226 227 228 227 227 228 227 226 226 227 228 232 238 244 250 256 262 266 268 268 269 271 275 279 282 284 288 292 295 298 300 302 305 309 313 315 319 322 323 324 324 325 325 324 325 326 328 330 331 330 330 332 335 337 338 338 338 340 343 345 346 346 346 348 351 355 359 1 1
211 209 208 209 212 215 216 215 215 216 219 221 222 223 225 228 229 230 230 229 228 228 228 228 229 230 234 239 245 252 256 261 265 268 269 270 271 273 275 277 279 282 285 288 292 294 296 297 300 303 307 309 313 316 318 320 320 321 322 322 322 324 326 328 328 328 328 330 333 336 337 338 338 339 341 343 344 345 345 346 350 354 357 359 359
214 213 212 213 214 217 217 218 219 220 221 223 223 225 228 230 231 231 230 229 229 229 231 234 238 241 244 248 252 257 261 264 266 268 268 269 271 272 274 274 275 277 281 285 288 290 291 293 295 298 302 304 308 311 314 316 317 318 319 320 321 322 324 326 326 326 327 329 331 334 336 338 338 338 340 341 343 345 345 347 353 357 357 358 358
218 216 216 217 218 219 220 220 221 222 224 224 225 227 228 229 230 230 229 230 230 232 234 238 243 247 251 255 258 262 265 267 269 270 270 270 270 271 272 273 272 273 277 281 285 286 288 289 292 295 299 301 304 307 310 313 315 316 317 318 319 320 321 323 324 325 326 328 330 332 335 337 338 339 340 340 342 345 346 353 0 359 358 357 357
223 221 219 220 221 223 224 224 223 224 226 227 228 230 230 230 231 230 230 231 232 234 237 240 244 248 252 257 261 263 267 270 272 273 273 272 272 272 272 272 272 273 276 279 282 285 287 288 290 294 298 300 302 305 308 311 312 313 314 316 317 318 319 321 322 323 324 326 328 331 334 336 337 340 340 341 343 345 347 352 357 357 356 355 355
223 223 223 223 223 225 226 227 227 226 227 229 232 233 234 234 235 235 235 236 236 238 241 244 247 251 254 257 260 263 267 269 271 273 273 273 273 273 273 274 274 276 277 280 283 286 288 289 291 295 298 299 300 303 307 310 310 311 311 313 315 316 317 319 321 322 323 324 326 329 332 334 337 338 339 341 343 345 345 344 345 349 352 351 351
220 221 222 223 224 225 226 227 228 227 227 229 232 235 236 238 239 240 241 242 242 244 246 249 252 254 257 259 261 264 267 268 270 272 273 273 273 273 275 276 277 279 280 282 284 286 289 291 292 295 297 298 300 303 307 309 309 310 310 311 312 314 316 318 319 321 322 323 324 327 330 333 335 336 338 340 342 340 338 334 333 338 344 346 346
224 222 222 222 223 225 227 228 229 229 229 229 231 234 237 239 241 242 244 246 247 248 250 251 254 256 258 260 262 265 267 269 270 271 271 272 272 273 275 277 280 281 282 284 284 286 289 291 292 294 295 297 300 303 306 308 309 309 309 309 311 312 314 316 318 319 320 322 323 324 328 331 333 334 336 338 338 335 330 327 327 331 338 341 343
227 227 226 225 225 226 227 229 230 232 232 233 233 234 236 238 241 243 245 247 249 250 251 252 254 256 258 260 262 265 267 269 270 270 271 271 272 273 275 278 280 282 283 283 284 286 288 290 291 292 294 296 299 302 305 307 308 308 308 308 309 310 312 314 317 318 319 321 323 322 324 329 331 333 334 334 333 330 326 322 324 328 333 337 342
231 231 230 229 230 230 229 230 231 233 234 236 236 237 238 239 241 242 244 246 249 250 252 253 254 256 258 259 261 264 266 267 268 268 269 270 271 272 274 277 278 279 281 281 283 284 286 288 289 290 293 295 297 300 303 305 306 306 306 307 308 309 311 313 315 316 317 320 322 321 322 326 330 331 332 331 329 325 320 314 315 320 328 336 343
234 234 233 232 232 233 233 233 234 234 235 236 238 239 241 242 243 244 245 246 248 249 251 253 254 256 258 259 261 263 265 266 266 267 268 269 271 272 273 275 276 277 278 279 280 282 283 285 287 289 292 294 296 299 301 303 304 305 305 306 306 307 309 311 313 315 317 318 320 320 320 324 329 330 329 329 327 323 319 314 311 316 328 338 343
234 235 235 235 234 234 235 235 236 237 237 237 238 239 241 243 244 245 246 247 247 249 251 253 254 255 257 259 261 262 263 265 265 266 268 269 271 272 273 274 275 276 276 277 278 280 282 284 286 288 290 292 295 297 300 302 302 302 303 304 305 306 307 309 311 313 315 317 317 319 319 322 327 328 327 327 325 322 321 322 319 322 331 338 340
234 235 236 237 237 237 237 237 238 238 239 239 239 239 241 242 244 246 247 247 248 249 251 253 254 256 258 260 261 262 263 264 265 266 268 269 270 271 272 274 274 275 276 277 279 280 282 284 285 288 290 291 294 296 299 300 300 300 301 302 303 305 305 307 309 311 313 315 315 317 319 322 325 326 326 324 322 319 320 324 323 324 329 334 337
235 236 238 239 240 240 240 240 240 240 240 240 241 241 241 242 244 246 247 248 249 250 251 253 255 257 259 261 262 262 262 263 264 265 266 267 269 270 271 272 273 275 276 278 279 280 282 284 286 288 289 291 293 295 297 297 297 297 299 300 301 302 303 305 307 309 312 313 314 315 319 322 323 324 325 322 316 314 317 318 319 321 326 329 332
234 236 238 239 241 242 243 243 243 243 243 243 243 243 243 243 244 245 247 249 251 252 253 255 257 259 261 262 261 261 262 262 263 264 265 267 268 270 271 272 273 275 277 278 279 281 283 284 286 287 288 290 291 293 294 295 295 296 297 299 299 300 301 303 305 308 310 311 312 314 317 321 321 322 323 318 309 308 311 313 316 320 323 325 326
232 235 237 238 240 242 243 245 246 246 246 246 246 247 247 247 246 247 249 250 252 253 254 255 257 258 260 261 262 262 262 263 264 265 266 268 269 270 271 272 274 275 277 278 279 280 282 283 285 286 287 288 290 291 292 293 294 295 296 297 298 299 300 302 304 307 308 309 311 312 316 319 319 321 321 314 303 304 307 308 314 318 320 321 321
230 234 236 238 239 241 243 245 246 247 248 249 249 250 251 251 252 251 252 252 253 254 254 255 256 257 258 260 262 263 263 263 264 266 267 268 269 271 271 272 273 274 276 277 278 280 281 281 283 285 286 288 289 290 291 292 293 294 295 296 297 298 299 300 303 305 306 307 308 310 314 316 316 319 319 310 302 306 307 308 313 316 318 318 318
230 233 237 239 241 243 244 246 247 248 249 250 250 251 252 253 254 255 255 255 256 256 257 257 258 258 259 260 261 263 264 264 265 266 267 268 269 270 271 272 272 274 275 276 278 279 280 281 283 285 286 287 287 288 289 290 292 293 294 295 295 296 297 299 300 302 303 304 305 308 311 312 313 316 316 307 304 308 308 308 312 313 313 314 317
235 236 238 240 242 245 248 250 251 251 252 252 252 252 252 253 254 255 256 256 257 258 259 259 259 260 260 261 262 263 265 266 267 267 267 267 268 269 271 272 273 273 274 276 277 278 280 281 283 284 285 285 285 287 288 289 290 292 293 293 294 294 295 297 298 299 299 300 302 306 308 308 310 314 312 305 304 306 307 308 309 309 309 312 319
240 240 241 243 244 247 250 253 255 256 256 256 256 255 254 254 255 255 256 256 257 258 259 259 260 260 261 262 262 264 265 267 268 268 269 269 269 270 271 272 273 274 275 276 277 278 279 280 281 282 283 283 284 285 286 287 288 289 290 291 291 292 293 293 295 296 296 298 300 303 304 305 308 310 307 303 303 304 305 306 307 307 308 313 321
244 244 244 245 246 248 251 254 256 258 260 261 261 260 258 257 258 258 258 259 259 259 259 259 260 261 262 263 264 265 266 267 268 269 269 270 270 271 272 273 274 275 275 274 275 276 278 279 280 280 281 282 283 284 285 285 286 287 288 288 289 290 290 291 292 293 294 295 298 300 301 303 305 305 303 303 304 305 304 304 305 306 309 315 322
245 246 246 247 249 251 253 254 256 259 261 263 264 265 264 263 262 262 262 262 261 261 261 261 262 264 265 266 267 268 268 268 269 269 269 270 271 271 272 273 273 274 274 275 275 276 277 277 278 279 280 281 282 283 283 283 284 285 286 286 287 288 288 288 290 291 292 294 296 297 298 300 302 302 302 304 306 306 303 303 304 306 311 317 322
246 247 248 249 251 253 255 256 256 258 260 262 264 265 266 266 266 266 266 264 264 264 265 266 267 268 268 267 268 268 269 270 270 271 271 272 273 273 273 273 274 274 275 276 276 277 277 277 278 278 279 280 281 282 282 282 283 283 284 285 285 286 286 287 288 289 290 293 295 295 296 298 299 300 302 305 307 305 303 303 304 307 313 319 320
246 247 248 250 251 253 255 255 256 257 258 260 261 263 264 265 267 268 267 267 269 270 272 272 271 270 270 269 269 270 271 271 272 273 274 275 276 276 276 277 277 278 278 278 278 278 278 278 279 279 280 281 281 282 282 282 282 283 284 284 285 285 286 286 287 288 290 292 293 294 294 296 297 299 301 304 305 305 304 304 305 310 316 319 319
247 247 248 249 250 252 252 253 254 256 257 258 259 261 262 264 265 266 268 269 271 272 273 273 273 273 272 272 272 272 273 274 275 275 276 278 278 279 280 280 281 281 282 282 282 282 282 282 282 282 282 282 282 282 282 283 283 283 284 284 284 285 285 285 287 289 290 291 292 293 294 295 296 298 300 302 304 306 307 306 307 312 316 317 318
249 249 249 250 251 252 252 252 253 254 256 257 258 259 260 262 263 264 266 268 268 269 270 272 273 274 274 275 275 275 276 277 277 277 277 279 280 280 280 281 282 282 283 283 283 283 284 284 284 283 282 282 282 282 282 283 283 284 284 284 285 285 286 287 289 290 290 290 292 293 293 294 295 296 298 301 304 309 310 308 309 313 316 316 317
250 250 251 252 253 254 254 253 253 253 254 255 257 258 259 260 261 262 264 265 266 268 270 271 272 273 274 275 275 276 277 278 278 279 279 279 280 280 281 281 281 282 283 283 283 283 283 284 283 283 283 282 282 282 283 283 283 284 285 286 288 289 289 289 289 289 290 292 294 294 293 293 293 294 296 299 304 310 313 311 310 313 315 315 315
250 251 252 254 254 255 256 256 255 254 254 254 256 257 258 260 261 262 263 264 265 267 268 270 271 272 273 273 274 275 275 276 277 279 280 280 280 281 283 283 283 283 283 283 283 283 283 282 282 282 282 282 281 282 282 282 283 284 286 288 290 289 287 286 286 289 293 297 297 295 293 293 292 292 293 296 303 310 314 311 310 312 314 314 315
250 251 252 254 255 256 256 257 257 256 256 255 255 256 257 259 260 261 262 263 264 265 266 268 269 271 272 272 273 274 274 274 274 276 278 280 281 282 284 285 286 286 284 283 283 283 283 282 281 281 281 281 281 281 282 283 284 284 286 288 288 286 283 282 284 289 297 302 304 301 298 295 293 292 292 296 304 310 312 310 310 312 313 313 313
250 251 252 253 254 255 256 257 257 258 258 257 257 257 257 258 258 260 261 262 262 263 264 266 267 268 270 271 272 272 272 273 273 274 275 278 280 282 283 285 286 287 286 284 283 282 283 283 282 281 281 281 282 284 285 285 283 282 283 284 285 284 282 281 283 292 303 308 307 299 293 293 292 289 290 296 303 307 308 308 309 310 310 310 311
250 251 252 253 253 254 255 256 257 258 258 258 258 258 257 257 258 259 260 261 262 262 262 264 265 266 268 269 271 271 272 272 273 274 275 277 278 280 282 283 284 285 285 284 283 282 282 282 281 281 281 281 283 285 284 282 281 282 285 285 281 279 280 282 286 293 301 307 303 288 283 287 288 285 286 292 298 300 302 304 306 307 307 308 309
249 251 252 253 253 253 254 254 255 257 257 258 258 258 258 258 259 259 260 261 262 262 263 263 264 265 266 268 269 271 272 273 273 274 275 276 277 279 281 283 284 285 284 282 282 282 281 280 278 277 278 278 279 278 276 276 278 280 281 281 279 282 287 290 290 292 297 301 297 286 283 285 283 280 282 287 291 295 298 300 303 304 305 306 309
249 250 251 252 252 253 254 254 255 256 256 256 257 257 258 259 260 261 261 262 262 262 263 263 264 265 266 267 269 270 272 273 274 274 275 276 277 278 280 282 284 285 284 280 278 278 278 276 273 273 274 273 271 269 268 271 274 274 275 285 293 297 297 294 290 289 293 296 293 287 288 290 288 283 282 283 286 291 295 297 301 303 304 306 308
248 249 251 252 252 253 254 254 255 256 256 257 257 258 259 259 260 261 262 262 263 263 263 264 264 265 266 267 268 270 271 272 273 274 275 276 277 279 280 281 283 284 282 278 276 275 272 268 266 268 269 263 259 260 262 268 276 277 274 277 285 293 298 294 289 289 292 293 290 287 290 296 296 290 286 285 287 291 294 296 300 302 303 304 306
Height
10961 10963 10964 10964 10964 10964 10965 10966 10968 10971 10973 10976 10977 10979 10980 10981 10983 10984 10985 10987 10988 10989 10989 10990 10991 10992 10993 10994 10995 10995 10995 10995 10995 10995 10996 10996 10996 10996 10996 10996 10995 10995 10995 10994 10993 10993 10992 10991 10990 10989 10988 10987 10986 10986 10985 10983 10982 10980 10979 10978 10977 10976 10974 10973 10972 10970 10969 10967 10966 10964 10962 10960 10958 10956 10954 10952 10949 10947 10946 10944 10943 10941 10939 10936 10934
10960 10961 10963 10964 10964 10964 10965 10966 10967 10970 10972 10975 10977 10979 10980 10981 10982 10983 10985 10986 10987 10988 10989 10990 10991 10992 10993 10994 10994 10995 10995 10995 10995 10995 10996 10996 10996 10996 10996 10996 10996 10996 10995 10995 10994 10994 10993 10992 10991 10990 10989 10988 10987 10986 10985 10984 10982 10981 10979 10978 10978 10977 10975 10974 10972 10971 10970 10969 10967 10965 10963 10961 10959 10957 10955 10953 10951 10949 10947 10945 10943 10941 10939 10937 10935
10958 10960 10961 10962 10963 10963 10964 10966 10967 10969 10971 10973 10976 10978 10979 10980 10982 10983 10984 10985 10987 10988 10989 10990 10991 10992 10992 10993 10994 10994 10994 10995 10995 10995 10996 10996 10996 10996 10996 10996 10996 10996 10995 10995 10995 10994 10993 10993 10992 10991 10990 10988 10987 10987 10985 10984 10982 10981 10980 10979 10978 10977 10976 10974 10973 10972 10971 10970 10968 10966 10964 10963 10961 10959 10957 10954 10952 10950 10948 10946 10944 10942 10940 10938 10935
10957 10958 10959 10961 10962 10963 10964 10965 10967 10969 10970 10972 10975 10977 10979 10980 10981 10983 10984 10985 10986 10988 10989 10990 10990 10991 10992 10993 10993 10994 10994 10994 10994 10995 10995 10996 10996 10996 10996 10996 10996 10995 10995 10995 10995 10994 10994 10993 10992 10991 10990 10989 10987 10987 10985 10984 10982 10981 10980 10979 10978 10977 10975 10974 10973 10973 10972 10970 10969 10967 10966 10964 10962 10960 10958 10956 10953 10951 10949 10947 10945 10943 10941 10938 10936
10956 10957 10958 10959 10960 10961 10962 10964 10966 10969 10970 10972 10974 10976 10978 10980 10981 10983 10984 10985 10986 10987 10988 10989 10990 10991 10992 10992 10993 10994 10994 10994 10994 10994 10995 10995 10995 10995 10995 10995 10995 10995 10995 10994 10994 10994 10994 10993 10992 10991 10990 10989 10988 10987 10985 10984 10982 10981 10980 10979 10978 10977 10976 10975 10974 10973 10972 10971 10969 10968 10966 10964 10962 10960 10958 10956 10954 10952 10950 10947 10945 10943 10941 10938 10936
10954 10955 10956 10957 10959 10960 10961 10964 10966 10968 10970 10972 10973 10975 10977 10979 10980 10982 10983 10984 10985 10986 10988 10989 10990 10990 10991 10992 10992 10993 10994 10994 10994 10994 10994 10995 10995 10995 10995 10995 10995 10994 10994 10994 10994 10994 10994 10993 10992 10991 10990 10989 10988 10986 10985 10984 10982 10981 10980 10979 10978 10977 10977 10976 10975 10973 10972 10971 10969 10968 10966 10964 10962 10960 10958 10956 10954 10952 10949 10947 10945 10942 10940 10938 10936
10952 10954 10954 10955 10957 10959 10961 10963 10966 10968 10970 10972 10973 10974 10975 10977 10979 10981 10982 10983 10984 10985 10987 10988 10989 10990 10990 10991 10992 10993 10993 10994 10994 10994 10994 10994 10995 10995 10995 10994 10994 10994 10994 10994 10994 10993 10993 10992 10992 10991 10990 10989 10988 10986 10985 10984 10983 10982 10980 10979 10979 10978 10977 10976 10974 10973 10972 10971 10969 10968 10965 10963 10961 10959 10957 10955 10953 10951 10948 10946 10944 10942 10939 10937 10934
10950 10952 10953 10954 10956 10958 10960 10962 10965 10967 10969 10971 10973 10974 10975 10976 10978 10979 10981 10982 10983 10984 10986 10987 10988 10989 10990 10991 10991 10992 10993 10994 10994 10994 10994 10994 10994 10995 10995 10994 10994 10993 10993 10993 10993 10993 10992 10992 10991 10990 10989 10988 10987 10986 10985 10984 10983 10981 10980 10980 10979 10978 10977 10975 10974 10973 10972 10971 10969 10967 10965 10963 10961 10959 10957 10954 10952 10950 10948 10945 10943 10940 10938 10935 10932
10948 10950 10951 10953 10955 10957 10959 10961 10963 10966 10968 10971 10973 10974 10975 10976 10977 10978 10979 10980 10982 10983 10984 10986 10987 10988 10989 10990 10991 10992 10992 10993 10993 10994 10993 10993 10993 10994 10994 10994 10994 10993 10993 10993 10993 10992 10992 10991 10990 10989 10988 10988 10987 10986 10985 10984 10983 10981 10980 10979 10978 10977 10976 10975 10974 10973 10971 10970 10969 10967 10965 10963 10961 10959 10956 10954 10951 10949 10947 10944 10942 10939 10936 10933 10930
10947 10949 10951 10952 10954 10955 10957 10959 10962 10965 10967 10969 10971 10973 10974 10975 10976 10977 10978 10979 10980 10981 10982 10984 10985 10987 10988 10989 10990 10991 10992 10992 10993 10993 10993 10993 10993 10993 10993 10994 10994 10993 10993 10993 10993 10992 10991 10990 10989 10988 10988 10987 10986 10985 10984 10984 10982 10981 10980 10979 10978 10977 10975 10974 10973 10972 10970 10969 10967 10965 10964 10962 10960 10958 10956 10953 10950 10948 10946 10943 10940 10938 10935 10932 10929
10945 10948 10950 10951 10952 10953 10955 10958 10960 10963 10965 10967 10969 10971 10972 10973 10974 10975 10976 10978 10979 10980 10981 10983 10984 10985 10987 10988 10989 10990 10991 10991 10992 10992 10992 10992 10992 10992 10992 10993 10993 10993 10992 10992 10992 10992 10991 10990 10989 10988 10987 10986 10986 10985 10984 10983 10982 10981 10979 10978 10977 10976 10975 10973 10972 10970 10968 10967 10965 10964 10962 10960 10958 10957 10954 10952 10950 10947 10945 10942 10939 10936 10933 10931 10928
10944 10947 10949 10950 10951 10952 10954 10956 10959 10961 10962 10964 10966 10968 10970 10972 10973 10975 10976 10977 10978 10980 10981 10982 10983 10984 10985 10986 10987 10988 10989 10990 10991 10991 10991 10992 10991 10991 10991 10991 10992 10992 10991 10991 10991 10991 10991 10990 10989 10988 10987 10986 10985 10984 10983 10982 10981 10980 10979 10977 10976 10975 10973 10972 10970 10968 10966 10964 10963 10961 10959 10958 10956 10954 10952 10950 10948 10946 10943 10941 10938 10935 10932 10929 10927
10942 10945 10948 10950 10951 10952 10954 10955 10957 10959 10961 10963 10965 10966 10968 10970 10972 10974 10975 10976 10977 10979 10980 10981 10982 10983 10984 10985 10986 10987 10988 10988 10989 10990 10990 10990 10990 10990 10990 10990 10990 10990 10990 10990 10989 10989 10989 10989 10988 10987 10986 10985 10984 10983 10982 10981 10980 10979 10978 10976 10975 10974 10972 10970 10969 10967 10964 10962 10960 10958 10956 10954 10953 10951 10950 10947 10945 10943 10941 10939 10936 10933 10930 10927 10924
10940 10943 10946 10949 10951 10952 10953 10954 10956 10957 10959 10961 10962 10965 10967 10969 10971 10972 10974 10975 10976 10978 10979 10980 10981 10982 10983 10983 10984 10985 10986 10987 10987 10988 10988 10989 10989 10988 10988 10988 10988 10988 10988 10988 10988 10987 10987 10987 10987 10986 10985 10984 10983 10982 10981 10980 10979 10978 10977 10975 10974 10972 10971 10969 10967 10965 10962 10960 10958 10956 10954 10951 10949 10948 10947 10945 10942 10940 10938 10936 10933 10931 10928 10925 10922
10939 10941 10944 10947 10949 10951 10952 10953 10954 10956 10957 10958 10960 10962 10964 10967 10969 10971 10972 10973 10975 10976 10977 10979 10979 10980 10981 10982 10983 10984 10984 10985 10985 10986 10986 10987 10987 10987 10987 10986 10986 10986 10986 10986 10986 10986 10985 10985 10985 10985 10984 10983 10982 10981 10980 10978 10977 10976 10975 10973 10972 10970 10969 10967 10965 10963 10961 10959 10957 10955 10952 10949 10946 10944 10943 10941 10939 10937 10934 10932 10930 10927 10925 10922 10920
10938 10940 10942 10944 10947 10949 10951 10952 10953 10954 10956 10957 10958 10960 10962 10965 10967 10969 10970 10972 10973 10974 10975 10976 10977 10978 10979 10980 10981 10982 10982 10983 10983 10984 10984 10985 10985 10985 10985 10984 10984 10984 10984 10984 10984 10984 10983 10983 10983 10982 10982 10981 10980 10979 10978 10977 10975 10974 10973 10971 10970 10968 10967 10965 10964 10962 10960 10958 10956 10954 10952 10949 10946 10943 10940 10938 10936 10934 10931 10929 10926 10924 10921 10919 10917
10937 10938 10941 10944 10945 10947 10949 10950 10952 10953 10954 10955 10957 10959 10962 10963 10965 10966 10968 10969 10971 10972 10973 10974 10975 10976 10977 10978 10979 10979 10980 10981 10981 10982 10982 10982 10983 10983 10983 10982 10982 10982 10982 10983 10982 10982 10981 10981 10980 10980 10979 10979 10978 10977 10976 10975 10973 10972 10971 10969 10967 10966 10965 10963 10962 10960 10958 10956 10955 10953 10951 10947 10944 10941 10939 10936 10933 10930 10928 10926 10923 10921 10918 10915 10913
10935 10937 10940 10942 10944 10945 10946 10948 10949 10950 10952 10954 10956 10958 10960 10961 10962 10964 10965 10967 10969 10970 10971 10972 10973 10974 10975 10975 10976 10977 10978 10979 10979 10980 10980 10980 10980 10981 10981 10980 10980 10979 10980 10980 10980 10980 10979 10979 10978 10977 10977 10976 10975 10974 10973 10972 10971 10970 10968 10967 10965 10963 10962 10961 10959 10957 10956 10954 10953 10951 10948 10946 10942 10939 10936 10933 10930 10927 10924 10922 10920 10917 10915 10912 10910
10932 10935 10937 10939 10941 10942 10944 10946 10947 10948 10950 10952 10954 10956 10958 10958 10960 10961 10963 10965 10966 10967 10968 10969 10970 10971 10972 10973 10974 10975 10975 10976 10977 10977 10977 10978 10978 10978 10978 10978 10977 10977 10977 10977 10978 10978 10977 10976 10975 10975 10974 10973 10972 10971 10970 10970 10968 10967 10966 10964 10962 10961 10959 10957 10955 10953 10952 10950 10949 10948 10946 10943 10940 10936 10933 10930 10927 10924 10920 10917 10915 10913 10911 10908 10906
10929 10932 10934 10935 10937 10939 10941 10943 10945 10947 10948 10950 10953 10954 10955 10956 10958 10959 10960 10962 10963 10964 10965 10966 10967 10968 10969 10970 10971 10972 10973 10973 10974 10974 10975 10975 10976 10976 10976 10976 10975 10974 10974 10974 10975 10975 10975 10974 10973 10972 10971 10970 10969 10968 10967 10966 10965 10964 10963 10961 10959 10958 10956 10954 10952 10949 10947 10946 10945 10944 10942 10939 10936 10933 10931 10927 10924 10921 10917 10914 10912 10909 10907 10904 10902
10926 10929 10931 10932 10935 10937 10939 10941 10943 10945 10947 10949 10951 10951 10952 10954 10955 10956 10958 10959 10960 10961 10963 10964 10964 10965 10966 10967 10968 10969 10970 10970 10970 10971 10972 10973 10973 10973 10973 10973 10972 10971 10971 10971 10971 10972 10972 10971 10970 10969 10968 10967 10966 10965 10964 10963 10962 10961 10960 10958 10956 10955 10953 10951 10948 10946 10944 10942 10941 10940 10938 10935 10932 10930 10928 10925 10921 10918 10914 10912 10910 10907 10904 10901 10898
10923 10925 10927 10929 10932 10934 10936 10938 10941 10943 10945 10947 10948 10948 10950 10951 10951 10953 10955 10956 10957 10959 10960 10961 10962 10962 10963 10964 10965 10966 10967 10967 10968 10968 10969 10970 10970 10971 10971 10970 10969 10968 10968 10968 10968 10969 10968 10968 10967 10966 10965 10964 10963 10962 10961 10960 10959 10958 10956 10955 10953 10951 10950 10947 10945 10943 10941 10939 10938 10936 10934 10932 10929 10926 10924 10921 10918 10915 10912 10910 10908 10904 10901 10898 10895
10918 10921 10924 10926 10928 10930 10932 10935 10938 10940 10942 10943 10944 10945 10946 10947 10948 10950 10952 10952 10954 10956 10958 10958 10958 10959 10960 10961 10961 10962 10964 10964 10965 10965 10966 10967 10967 10967 10967 10967 10966 10966 10965 10965 10965 10965 10965 10965 10964 10963 10962 10961 10960 10959 10958 10957 10956 10954 10953 10951 10949 10948 10946 10944 10942 10940 10938 10937 10935 10933 10931 10929 10926 10923 10920 10918 10916 10913 10910 10907 10905 10902 10899 10896 10893
10913 10916 10918 10920 10923 10925 10927 10930 10932 10935 10936 10938 10939 10940 10941 10943 10945 10946 10946 10948 10950 10952 10954 10954 10954 10955 10956 10957 10957 10959 10960 10961 10962 10963 10963 10963 10964 10964 10964 10963 10963 10963 10963 10962 10962 10962 10962 10962 10961 10960 10959 10958 10956 10955 10955 10954 10952 10951 10949 10947 10946 10944 10942 10940 10938 10937 10935 10934 10932 10930 10928 10926 10923 10920 10917 10915 10913 10910 10907 10904 10902 10899 10896 10893 10890
10909 10911 10913 10916 10918 10920 10922 10925 10927 10929 10931 10933 10934 10935 10937 10938 10940 10941 10941 10943 10946 10948 10949 10949 10950 10951 10952 10952 10953 10955 10956 10957 10958 10959 10959 10960 10960 10960 10960 10960 10960 10960 10959 10959 10959 10958 10959 10958 10957 10956 10955 10955 10953 10952 10951 10950 10949 10947 10945 10943 10941 10940 10938 10937 10935 10933 10932 10931 10929 10927 10925 10923 10920 10917 10914 10912 10909 10907 10904 10900 10898 10895 10893 10889 10886
10904 10906 10909 10912 10914 10916 10918 10920 10922 10924 10926 10928 10929 10931 10932 10934 10935 10936 10937 10939 10941 10943 10944 10945 10945 10946 10946 10947 10949 10950 10951 10953 10954 10954 10955 10956 10956 10956 10956 10956 10956 10956 10956 10955 10955 10955 10955 10954 10953 10952 10951 10951 10949 10948 10948 10947 10945 10943 10941 10939 10938 10936 10934 10933 10931 10930 10928 10927 10926 10924 10921 10919 10917 10914 10911 10909 10906 10904 10901 10898 10895 10892 10889 10886 10882
10898 10901 10904 10907 10909 10911 10913 10916 10918 10919 10921 10923 10924 10926 10928 10929 10930 10930 10932 10935 10936 10937 10938 10939 10940 10940 10941 10942 10944 10945 10947 10948 10949 10950 10950 10951 10951 10952 10952 10952 10952 10952 10951 10951 10950 10950 10950 10950 10949 10948 10947 10947 10945 10944 10944 10943 10942 10940 10938 10936 10934 10932 10931 10929 10928 10926 10925 10924 10922 10919 10917 10916 10913 10910 10908 10905 10902 10899 10897 10894 10891 10889 10886 10883 10880
10892 10895 10898 10901 10903 10905 10908 10911 10913 10915 10916 10918 10920 10921 10922 10924 10924 10926 10928 10930 10931 10932 10932 10933 10934 10935 10935 10937 10939 10941 10942 10943 10944 10945 10945 10946 10947 10947 10948 10948 10947 10947 10947 10946 10946 10945 10945 10945 10945 10944 10943 10942 10941 10940 10940 10940 10938 10936 10934 10932 10930 10928 10927 10926 10924 10923 10922 10920 10918 10915 10913 10911 10910 10907 10904 10901 10898 10894 10891 10889 10887 10886 10883 10880 10876
10886 10888 10891 10894 10897 10900 10903 10906 10907 10909 10911 10913 10915 10916 10917 10918 10919 10921 10923 10924 10926 10927 10927 10928 10929 10930 10929 10931 10935 10937 10937 10938 10938 10939 10940 10941 10942 10942 10942 10942 10942 10942 10942 10942 10941 10940 10940 10940 10940 10939 10939 10938 10937 10936 10936 10936 10935 10933 10931 10928 10926 10924 10922 10921 10920 10919 10918 10916 10914 10911 10909 10908 10906 10903 10900 10896 10893 10890 10886 10884 10883 10882 10879 10876 10873
10880 10883 10886 10888 10891 10894 10897 10899 10901 10903 10905 10907 10909 10910 10912 10913 10914 10916 10917 10919 10921 10923 10923 10923 10924 10924 10924 10927 10930 10931 10932 10932 10933 10933 10934 10935 10936 10937 10937 10937 10937 10937 10936 10936 10936 10935 10934 10935 10935 10935 10934 10933 10933 10932 10932 10932 10931 10929 10927 10924 10922 10920 10918 10916 10916 10915 10914 10912 10909 10906 10905 10904 10902 10899 10896 10892 10889 10886 10883 10880 10879 10878 10875 10872 10869
10876 10878 10881 10883 10886 10888 10890 10892 10894 10896 10898 10901 10902 10904 10906 10908 10909 10910 10911 10913 10916 10918 10919 10919 10919 10919 10921 10922 10924 10925 10926 10926 10926 10927 10928 10929 10931 10931 10932 10932 10932 10931 10931 10931 10931 10930 10929 10929 10930 10930 10929 10928 10928 10928 10928 10927 10926 10924 10923 10920 10918 10915 10914 10912 10911 10911 10910 10908 10904 10901 10901 10901 10898 10895 10892 10888 10885 10882 10879 10877 10875 10873 10871 10868 10865
10872 10874 10876 10878 10880 10882 10884 10886 10888 10890 10893 10894 10896 10898 10900 10902 10904 10905 10907 10909 10912 10912 10914 10915 10915 10916 10916 10916 10917 10918 10919 10919 10920 10921 10923 10924 10925 10926 10926 10926 10926 10927 10927 10926 10925 10925 10925 10924 10924 10925 10924 10923 10923 10922 10922 10922 10921 10919 10918 10916 10913 10911 10909 10907 10906 10906 10905 10902 10898 10896 10897 10897 10894 10892 10889 10884 10881 10879 10877 10874 10872 10869 10866 10864 10861
10868 10869 10871 10873 10875 10877 10878 10880 10881 10884 10886 10888 10890 10893 10894 10896 10899 10901 10904 10906 10906 10907 10908 10909 10910 10911 10910 10909 10909 10911 10912 10913 10914 10916 10918 10920 10920 10920 10920 10921 10921 10922 10922 10921 10920 10921 10921 10919 10918 10919 10919 10918 10917 10916 10916 10916 10915 10914 10913 10911 10909 10906 10904 10902 10900 10900 10899 10896 10893 10891 10892 10892 10889 10888 10886 10881 10877 10875 10874 10872 10869 10866 10863 10860 10858
10863 10864 10866 10868 10870 10871 10873 10874 10876 10878 10880 10883 10885 10887 10888 10891 10893 10895 10898 10899 10899 10900 10901 10902 10903 10904 10904 10903 10903 10904 10904 10906 10908 10910 10913 10914 10915 10914 10914 10915 10916 10917 10917 10915 10914 10915 10915 10914 10913 10912 10913 10912 10911 10910 10910 10910 10909 10909 10908 10907 10904 10900 10898 10896 10895 10894 10893 10891 10888 10887 10887 10887 10884 10883 10881 10877 10874 10872 10870 10868 10865 10862 10860 10857 10855
10859 10860 10861 10863 10865 10866 10868 10869 10871 10873 10875 10877 10879 10881 10884 10885 10886 10888 10889 10890 10892 10893 10893 10894 10895 10896 10897 10897 10896 10896 10897 10899 10901 10904 10907 10909 10908 10907 10906 10908 10910 10911 10910 10909 10909 10908 10908 10908 10908 10907 10907 10906 10904 10903 10904 10904 10903 10903 10903 10902 10899 10895 10892 10890 10889 10888 10887 10885 10883 10882 10882 10880 10879 10878 10876 10873 10870 10868 10866 10864 10861 10859 10856 10853 10850
10856 10856 10857 10859 10860 10861 10862 10863 10865 10868 10869 10871 10873 10876 10878 10879 10880 10881 10882 10883 10885 10885 10886 10886 10887 10888 10889 10890 10890 10890 10891 10892 10894 10897 10900 10901 10901 10900 10899 10900 10902 10904 10904 10904 10903 10902 10901 10902 10902 10901 10900 10899 10897 10897 10897 10897 10897 10897 10897 10896 10893 10889 10886 10884 10883 10882 10881 10879 10877 10877 10876 10874 10873 10872 10871 10868 10865 10864 10861 10859 10856 10854 10851 10848 10844
10851 10852 10853 10854 10855 10856 10858 10859 10860 10861 10863 10865 10867 10870 10872 10873 10873 10874 10875 10877 10877 10877 10877 10878 10879 10880 10882 10883 10884 10885 10886 10886 10886 10889 10891 10892 10892 10893 10893 10893 10894 10896 10897 10897 10895 10895 10895 10896 10895 10894 10893 10891 10890 10891 10891 10890 10890 10890 10891 10890 10888 10884 10880 10878 10877 10876 10874 10872 10872 10870 10869 10868 10867 10866 10865 10862 10860 10858 10855 10853 10850 10848 10845 10842 10838
10846 10848 10849 10850 10851 10852 10854 10854 10855 10856 10858 10859 10860 10862 10865 10866 10867 10867 10869 10870 10870 10869 10869 10870 10872 10874 10876 10877 10877 10879 10880 10879 10879 10881 10882 10883 10883 10885 10885 10885 10886 10887 10888 10888 10888 10888 10889 10889 10888 10886 10884 10883 10883 10884 10883 10882 10881 10882 10883 10882 10881 10878 10874 10871 10870 10870 10867 10866 10866 10863 10862 10861 10861 10859 10858 10856 10854 10851 10849 10846 10844 10841 10838 10835 10832
10842 10843 10844 10845 10846 10847 10849 10850 10850 10851 10853 10854 10855 10856 10858 10859 10860 10861 10862 10863 10862 10860 10860 10863 10866 10869 10871 10871 10871 10871 10871 10871 10872 10872 10873 10874 10875 10876 10877 10878 10878 10877 10877 10878 10880 10881 10881 10881 10880 10879 10877 10875 10875 10875 10875 10873 10872 10873 10874 10874 10873 10871 10867 10863 10863 10862 10860 10859 10859 10857 10855 10854 10854 10853 10851 10849 10848 10845 10842 10840 10838 10835 10832 10829 10827
10837 10838 10839 10840 10841 10842 10843 10844 10845 10847 10848 10849 10849 10850 10851 10852 10853 10855 10856 10855 10853 10852 10855 10859 10861 10863 10864 10864 10864 10863 10863 10864 10864 10864 10865 10866 10867 10867 10868 10870 10870 10869 10869 10870 10872 10872 10872 10872 10872 10871 10870 10868 10866 10866 10865 10863 10862 10863 10864 10865 10865 10863 10858 10856 10856 10854 10853 10852 10852 10850 10847 10847 10847 10846 10845 10843 10841 10838 10836 10834 10832 10829 10826 10824 10822
10832 10833 10834 10836 10837 10837 10838 10838 10839 10841 10843 10844 10844 10844 10845 10846 10847 10848 10848 10847 10847 10848 10851 10853 10854 10855 10856 10856 10857 10857 10856 10856 10857 10857 10858 10859 10858 10858 10859 10861 10862 10861 10861 10862 10862 10863 10863 10863 10863 10862 10862 10860 10858 10857 10856 10853 10851 10853 10854 10855 10856 10853 10849 10847 10848 10846 10845 10845 10844 10841 10840 10839 10839 10839 10838 10837 10835 10832 10830 10827 10825 10823 10821 10819 10817
10825 10828 10829 10830 10831 10832 10833 10833 10834 10835 10836 10838 10838 10838 10839 10840 10841 10841 10841 10841 10842 10843 10844 10845 10846 10847 10848 10848 10849 10850 10850 10849 10849 10851 10852 10852 10851 10851 10852 10853 10854 10853 10853 10854 10853 10853 10853 10854 10854 10853 10853 10851 10849 10848 10847 10844 10841 10842 10843 10844 10846 10843 10839 10839 10840 10838 10837 10837 10836 10834 10832 10832 10832 10831 10831 10830 10828 10826 10824 10821 10819 10817 10816 10814 10812
10818 10821 10823 10824 10825 10827 10827 10828 10829 10829 10830 10831 10831 10832 10833 10834 10834 10835 10835 10836 10836 10836 10837 10838 10839 10840 10841 10841 10841 10843 10844 10843 10843 10844 10846 10846 10845 10845 10845 10847 10848 10847 10847 10847 10846 10845 10844 10845 10845 10844 10843 10842 10840 10839 10839 10836 10833 10832 10832 10834 10836 10835 10832 10831 10832 10830 10828 10828 10829 10827 10825 10825 10824 10823 10823 10823 10823 10820 10818 10815 10813 10812 10810 10808 10806
10811 10813 10816 10818 10819 10820 10821 10822 10823 10824 10824 10824 10824 10825 10825 10826 10827 10828 10829 10829 10829 10830 10831 10832 10832 10833 10834 10834 10835 10836 10837 10837 10836 10836 10839 10840 10839 10838 10839 10840 10841 10841 10840 10840 10839 10838 10837 10837 10836 10835 10834 10833 10831 10830 10830 10828 10825 10822 10822 10824 10827 10827 10825 10823 10823 10822 10820 10821 10822 10821 10819 10817 10816 10815 10815 10816 10816 10815 10812 10809 10807 10806 10805 10803 10801
10804 10806 10808 10810 10812 10813 10814 10814 10816 10818 10818 10819 10818 10818 10819 10819 10820 10821 10822 10823 10823 10824 10824 10824 10825 10826 10827 10828 10828 10830 10830 10830 10829 10829 10830 10832 10832 10832 10832 10832 10833 10834 10834 10833 10831 10831 10830 10829 10828 10826 10825 10823 10822 10821 10821 10819 10817 10814 10813 10815 10818 10819 10818 10816 10815 10815 10815 10815 10815 10814 10812 10810 10809 10808 10808 10809 10809 10808 10806 10804 10802 10801 10799 10798 10796
10796 10799 10801 10803 10804 10805 10806 10807 10808 10810 10811 10812 10813 10813 10813 10813 10814 10814 10815 10816 10817 10817 10818 10818 10818 10819 10820 10821 10822 10823 10823 10823 10823 10823 10823 10823 10824 10826 10826 10825 10825 10826 10826 10826 10825 10823 10822 10821 10820 10818 10816 10813 10812 10813 10813 10812 10810 10807 10806 10807 10809 10810 10810 10809 10809 10810 10811 10810 10808 10807 10805 10803 10802 10801 10801 10802 10802 10802 10801 10799 10797 10796 10794 10792 10791
10788 10791 10793 10795 10796 10797 10798 10799 10799 10800 10802 10804 10805 10806 10807 10807 10807 10808 10808 10809 10810 10811 10811 10811 10811 10811 10812 10813 10815 10815 10815 10815 10816 10817 10817 10817 10817 10818 10819 10819 10819 10818 10817 10818 10817 10816 10814 10812 10811 10809 10807 10805 10804 10805 10805 10804 10801 10800 10799 10800 10802 10803 10803 10804 10805 10806 10806 10804 10804 10804 10801 10798 10797 10796 10795 10795 10796 10796 10795 10794 10792 10791 10789 10787 10785
10780 10783 10784 10786 10788 10789 10790 10790 10790 10791 10793 10794 10796 10797 10798 10799 10800 10800 10801 10802 10803 10803 10803 10803 10804 10804 10805 10806 10807 10807 10808 10808 10809 10810 10811 10811 10811 10811 10812 10813 10813 10811 10810 10809 10809 10808 10807 10804 10802 10800 10798 10798 10798 10799 10798 10795 10793 10792 10792 10794 10796 10797 10798 10799 10799 10799 10798 10799 10801 10802 10799 10794 10792 10791 10790 10789 10790 10790 10790 10789 10788 10785 10783 10781 10779
10771 10774 10775 10777 10778 10779 10781 10782 10782 10783 10783 10784 10785 10786 10788 10789 10791 10792 10793 10794 10795 10795 10795 10796 10796 10797 10798 10799 10799 10800 10800 10801 10802 10803 10804 10804 10803 10803 10804 10805 10805 10804 10803 10802 10800 10799 10797 10795 10793 10792 10792 10792 10792 10791 10790 10787 10785 10784 10785 10787 10790 10792 10793 10793 10793 10792 10791 10792 10794 10795 10793 10789 10788 10787 10786 10784 10785 10785 10785 10784 10782 10780 10778 10776 10774
10763 10764 10766 10767 10769 10770 10772 10773 10774 10774 10774 10775 10776 10777 10779 10780 10782 10783 10785 10786 10786 10787 10787 10788 10788 10789 10790 10791 10792 10792 10793 10794 10794 10795 10795 10796 10795 10795 10796 10797 10797 10795 10795 10794 10793 10791 10789 10787 10786 10786 10786 10785 10784 10783 10782 10780 10777 10776 10777 10779 10781 10782 10783 10782 10783 10784 10784 10785 10786 10786 10785 10783 10782 10782 10782 10781 10780 10781 10780 10779 10777 10775 10772 10770 10769
10754 10755 10757 10758 10759 10761 10763 10764 10765 10765 10766 10767 10768 10769 10771 10772 10774 10775 10776 10777 10778 10779 10780 10780 10781 10782 10783 10783 10784 10784 10785 10785 10785 10786 10787 10787 10787 10787 10788 10790 10790 10789 10787 10786 10784 10783 10783 10782 10781 10780 10779 10778 10778 10777 10775 10773 10771 10770 10772 10774 10776 10777 10776 10774 10773 10774 10776 10778 10780 10780 10778 10777 10776 10776 10777 10777 10777 10776 10775 10774 10772 10770 10767 10765 10763